EW8411 Weather Reports


time (UTC)temp
F
wind
direction
speed
knots
gust
knots
rain 1hr
in
rain 24hr
in
rain mn
in
humidity
%
barometer
mb
20260507073748 55 0 0.9 1.7 0.00 0.00 0.00 87 1015.5
20260507073253 56 0 0.0 1.7 0.00 0.00 0.00 87 1015.5
20260507073250 56 0 0.9 1.7 0.00 0.00 0.00 87 1015.5
20260507072250 56 0 0.0 0.9 0.00 0.00 0.00 87 1015.5
20260507071750 56 0 0.0 0.9 0.00 0.00 0.00 86 1015.5
20260507071249 56 0 0.0 1.7 0.00 0.00 0.00 86 1015.5
20260507070753 57 0 0.9 1.7 0.00 0.00 0.00 86 1015.3
20260507070749 56 0 0.9 1.7 0.00 0.00 0.00 86 1015.4
20260507065748 57 0 0.9 1.7 0.00 0.00 0.00 86 1015.4
20260507065249 57 0 0.9 2.6 0.00 0.00 0.00 86 1015.3
20260507064250 57 0 0.9 2.6 0.00 0.00 0.00 86 1015.4
20260507063754 58 0 0.9 1.7 0.00 0.00 0.00 85 1015.4
20260507063748 58 0 0.9 2.6 0.00 0.00 0.00 85 1015.4
20260507062750 58 0 0.9 1.7 0.00 0.00 0.00 85 1015.4
20260507062250 58 0 0.9 2.6 0.00 0.00 0.00 85 1015.4
20260507061750 58 0 0.9 2.6 0.00 0.00 0.00 85 1015.3
20260507061254 58 0 0.9 2.6 0.00 0.00 0.00 85 1015.2
20260507061250 58 0 0.0 2.6 0.00 0.00 0.00 85 1015.4
20260507060251 58 0 0.9 3.5 0.00 0.00 0.00 84 1015.2
20260507055748 58 0 0.9 3.5 0.00 0.00 0.00 84 1015.3
20260507055251 58 0 0.9 2.6 0.00 0.00 0.00 84 1015.3
20260507054749 58 0 0.9 2.6 0.00 0.00 0.00 84 1015.2
20260507054247 58 0 0.9 2.6 0.00 0.00 0.00 84 1015.2
20260507053746 58 0 0.9 2.6 0.00 0.00 0.00 83 1015.2
20260507053248 59 0 0.9 1.7 0.00 0.00 0.00 82 1015.3
20260507052746 59 0 0.9 1.7 0.00 0.00 0.00 83 1015.3
20260507052247 59 0 0.9 2.6 0.00 0.00 0.00 82 1015.3
20260507051748 59 0 0.9 2.6 0.00 0.00 0.00 82 1015.2
20260507051246 59 0 0.0 1.7 0.00 0.00 0.00 82 1015.2
20260507050753 59 0 0.9 2.6 0.00 0.00 0.00 82 1015.2
20260507050748 59 0 0.9 1.7 0.00 0.00 0.00 82 1015.2
20260507045748 59 0 0.9 2.6 0.00 0.00 0.00 82 1015.0
20260507045247 59 0 0.9 1.7 0.00 0.00 0.00 83 1015.0
20260507044746 59 0 0.9 1.7 0.00 0.00 0.00 83 1015.1
20260507044246 59 0 0.9 1.7 0.00 0.00 0.00 83 1015.1
20260507043747 59 0 0.9 2.6 0.00 0.00 0.00 82 1015.0
20260507043248 59 0 0.9 2.6 0.00 0.00 0.00 82 1015.1
20260507042747 59 0 0.0 2.6 0.00 0.00 0.00 82 1014.8
20260507042244 59 0 0.9 2.6 0.00 0.00 0.00 82 1014.9
20260507041745 59 0 0.9 2.6 0.00 0.00 0.00 82 1014.8
20260507041244 59 0 0.9 1.7 0.00 0.00 0.00 82 1014.7
20260507040744 60 0 0.0 1.7 0.00 0.00 0.00 82 1014.7
20260507040244 60 0 0.0 0.9 0.00 0.00 0.00 81 1014.8
20260507035744 60 0 0.0 1.7 0.00 0.00 0.00 81 1014.6
20260507035244 60 0 0.0 1.7 0.00 0.00 0.00 81 1014.6
20260507034746 60 0 0.9 2.6 0.00 0.00 0.00 81 1014.5
20260507034243 60 0 0.0 2.6 0.00 0.00 0.00 80 1014.5
20260507033743 60 0 0.0 1.7 0.00 0.00 0.00 80 1014.4
20260507033244 61 0 0.0 1.7 0.00 0.00 0.00 79 1014.4
20260507032743 61 0 0.0 1.7 0.00 0.00 0.00 79 1014.4
20260507032242 61 0 0.0 1.7 0.00 0.00 0.00 79 1014.3
20260507031740 61 0 0.9 3.5 0.00 0.00 0.00 78 1014.2
20260507031242 62 0 0.9 3.5 0.00 0.00 0.00 78 1014.2
20260507030743 62 0 0.0 1.7 0.00 0.00 0.00 78 1014.2
20260507030243 63 0 0.0 1.7 0.00 0.00 0.00 76 1014.0
20260507030238 62 0 0.9 1.7 0.00 0.00 0.00 77 1014.1
20260507024739 63 0 0.0 0.9 0.00 0.00 0.00 75 1014.0
20260507024238 64 0 0.0 0.9 0.00 0.00 0.00 75 1014.0
20260507023741 64 0 0.9 1.7 0.00 0.00 0.00 75 1014.0
20260507023239 64 0 0.0 1.7 0.00 0.00 0.00 74 1014.0
20260507022737 64 0 0.9 2.6 0.00 0.00 0.00 74 1014.0
20260507022238 64 0 0.9 2.6 0.00 0.00 0.00 74 1014.0
20260507021736 65 0 0.0 2.6 0.00 0.00 0.00 73 1014.0
20260507021236 65 0 0.0 0.9 0.00 0.00 0.00 73 1014.0
20260507020736 65 0 0.0 0.9 0.00 0.00 0.00 72 1014.0
20260507020241 65 0 0.0 2.6 0.00 0.00 0.00 73 1014.0
20260507020236 65 0 0.0 0.0 0.00 0.00 0.00 72 1014.1
20260507014737 65 0 1.7 3.5 0.00 0.00 0.00 72 1014.2
20260507014241 65 0 0.9 3.5 0.00 0.00 0.00 71 1014.2
20260507014236 65 0 1.7 3.5 0.00 0.00 0.00 71 1014.2
20260507013234 65 0 0.9 3.5 0.00 0.00 0.00 71 1014.1
20260507012235 66 0 1.7 4.3 0.00 0.00 0.00 70 1014.2
20260507011737 66 0 1.7 2.6 0.00 0.00 0.00 67 1014.2
20260507011239 67 0 2.6 4.3 0.00 0.00 0.00 66 1014.3
20260507011235 66 0 2.6 4.3 0.00 0.00 0.00 66 1014.2
20260507010237 67 0 1.7 4.3 0.00 0.00 0.00 62 1014.3
20260507005739 69 0 1.7 3.5 0.00 0.00 0.00 60 1014.3
20260507005735 68 0 1.7 4.3 0.00 0.00 0.00 62 1014.3
20260507004732 69 0 1.7 4.3 0.00 0.00 0.00 59 1014.4
20260507004232 68 0 1.7 4.3 0.00 0.00 0.00 58 1014.4
20260507003732 68 0 1.7 3.5 0.00 0.00 0.00 60 1014.5
20260507003233 67 0 1.7 4.3 0.00 0.00 0.00 61 1014.5
20260507002733 67 0 1.7 5.2 0.00 0.00 0.00 61 1014.5
20260507002234 68 0 2.6 5.2 0.00 0.00 0.00 61 1014.6
20260507001732 68 0 1.7 4.3 0.00 0.00 0.00 59 1014.6
20260507001232 69 0 1.7 5.2 0.00 0.00 0.00 59 1014.6
20260507000734 69 0 1.7 5.2 0.00 0.00 0.00 59 1014.6
20260507000234 68 0 1.7 4.3 0.00 0.00 0.00 58 1014.6
20260506235733 68 0 1.7 3.5 0.00 0.00 0.00 60 1014.7
20260506235232 68 0 1.7 4.3 0.00 0.00 0.00 63 1014.7
20260506234731 68 0 1.7 5.2 0.00 0.00 0.00 65 1014.8
20260506234231 68 0 1.7 5.2 0.00 0.00 0.00 67 1014.8
20260506233729 68 0 1.7 3.5 0.00 0.00 0.00 69 1014.8
20260506233231 68 0 1.7 4.3 0.00 0.00 0.00 70 1014.9
20260506232733 69 0 2.6 5.2 0.00 0.00 0.00 67 1015.0
20260506232728 68 0 1.7 4.3 0.00 0.00 0.00 69 1014.9
20260506231728 68 0 2.6 7.0 0.00 0.00 0.00 66 1015.0
20260506231229 70 0 2.6 7.0 0.00 0.00 0.00 61 1015.1
20260506230731 70 0 1.7 4.3 0.00 0.00 0.00 59 1015.2
20260506230725 71 0 1.7 4.3 0.00 0.00 0.00 61 1015.1
20260506225725 70 0 1.7 5.2 0.00 0.00 0.00 57 1015.2
20260506225225 69 0 2.6 5.2 0.00 0.00 0.00 58 1015.3
20260506224725 69 0 2.6 7.0 0.00 0.00 0.00 58 1015.4
20260506224223 70 0 2.6 7.0 0.00 0.00 0.00 57 1015.5
20260506223724 70 0 1.7 5.2 0.00 0.00 0.00 59 1015.5
20260506223227 70 0 1.7 4.3 0.00 0.00 0.00 58 1015.6
20260506222725 69 0 1.7 3.5 0.00 0.00 0.00 60 1015.7
20260506222222 69 0 2.6 7.0 0.00 0.00 0.00 59 1015.7
20260506221726 68 0 2.6 7.8 0.00 0.00 0.00 61 1015.9
20260506221722 67 0 2.6 7.8 0.00 0.00 0.00 61 1016.0
20260506220721 67 0 2.6 5.2 0.00 0.00 0.00 60 1016.1
20260506220217 67 0 3.5 7.8 0.00 0.00 0.00 63 1016.2
20260506215719 66 0 3.5 7.8 0.00 0.00 0.00 62 1016.3
20260506215220 67 0 2.6 5.2 0.00 0.00 0.00 62 1016.4
20260506214718 68 0 1.7 5.2 0.00 0.00 0.00 61 1016.4
20260506214217 68 0 2.6 5.2 0.00 0.00 0.00 62 1016.5
20260506213717 67 0 2.6 7.0 0.00 0.00 0.00 64 1016.5
20260506213217 66 0 2.6 7.0 0.00 0.00 0.00 63 1016.5
20260506212717 66 0 2.6 5.2 0.00 0.00 0.00 63 1016.6
20260506212216 66 0 2.6 7.0 0.00 0.00 0.00 64 1016.6
20260506211717 67 0 2.6 7.0 0.00 0.00 0.00 64 1016.9
20260506211215 67 0 2.6 5.2 0.00 0.00 0.00 66 1016.9
20260506210714 66 0 2.6 3.5 0.00 0.00 0.00 67 1016.9
20260506210214 66 0 2.6 5.2 0.00 0.00 0.00 68 1016.9
20260506205713 66 0 2.6 5.2 0.00 0.00 0.00 67 1017.0
20260506205213 65 0 2.6 5.2 0.00 0.00 0.00 70 1017.0
20260506204712 65 0 2.6 5.2 0.00 0.00 0.00 68 1017.0
20260506204213 65 0 2.6 7.0 0.00 0.00 0.00 72 1017.0
20260506203712 65 0 2.6 7.0 0.00 0.00 0.00 71 1017.0
20260506202712 65 0 2.6 7.0 0.00 0.00 0.00 70 1017.1
20260506202212 65 0 2.6 5.2 0.00 0.00 0.00 72 1017.2
20260506201711 65 0 2.6 8.7 0.00 0.00 0.00 71 1017.2
20260506201211 65 0 2.6 8.7 0.00 0.00 0.00 70 1017.2
20260506200713 65 0 2.6 7.8 0.00 0.00 0.00 73 1017.3
20260506200217 64 0 3.5 7.0 0.00 0.00 0.00 74 1017.3
20260506200213 65 0 2.6 7.8 0.00 0.00 0.00 72 1017.3
20260506195212 65 0 3.5 7.0 0.00 0.00 0.00 72 1017.4
20260506194717 66 0 1.7 7.0 0.00 0.00 0.00 71 1017.4
20260506194713 66 0 2.6 7.0 0.00 0.00 0.00 71 1017.3
20260506193709 64 0 3.5 9.6 0.00 0.00 0.00 73 1017.4
20260506193209 64 0 3.5 9.6 0.00 0.00 0.00 71 1017.4
20260506192712 65 0 1.7 9.6 0.00 0.00 0.00 70 1017.4
20260506192211 66 0 1.7 3.5 0.00 0.00 0.00 70 1017.4
20260506191711 65 0 2.6 7.0 0.00 0.00 0.00 70 1017.4
20260506191212 64 0 2.6 8.7 0.00 0.00 0.00 70 1017.4
20260506190711 66 0 2.6 8.7 0.00 0.00 0.00 67 1017.4
20260506190210 66 0 1.7 5.2 0.00 0.00 0.00 67 1017.5
20260506185710 66 0 1.7 5.2 0.00 0.00 0.00 68 1017.6
20260506185210 65 0 2.6 7.0 0.00 0.00 0.00 69 1017.6
20260506184209 64 0 3.5 7.8 0.00 0.00 0.00 71 1017.7
20260506183710 63 0 3.5 8.7 0.00 0.00 0.00 69 1017.7
20260506183210 63 0 3.5 8.7 0.00 0.00 0.00 70 1017.8
20260506182711 64 0 2.6 7.8 0.00 0.00 0.00 71 1017.8
20260506182212 63 0 3.5 7.8 0.00 0.00 0.00 73 1017.9
20260506181710 62 0 4.3 9.6 0.00 0.00 0.00 75 1018.0
20260506181211 62 0 4.3 9.6 0.00 0.00 0.00 74 1018.0
20260506180711 63 0 3.5 8.7 0.00 0.00 0.00 73 1018.0
20260506180209 63 0 2.6 8.7 0.00 0.00 0.00 73 1017.9
20260506175716 63 0 3.5 7.8 0.00 0.00 0.00 73 1017.9
20260506175711 63 0 2.6 7.8 0.00 0.00 0.00 73 1017.9
20260506175329 62 0 3.5 7.8 0.00 0.00 0.00 73 1017.9
20260506174210 62 0 4.3 8.7 0.00 0.00 0.00 74 1017.9
20260506173710 62 0 4.3 8.7 0.00 0.00 0.00 75 1017.8
20260506173211 62 0 4.3 8.7 0.00 0.00 0.00 74 1017.7
20260506172709 62 0 3.5 9.6 0.00 0.00 0.00 74 1017.8
20260506172210 62 0 3.5 9.6 0.00 0.00 0.00 74 1017.7
20260506171710 62 0 2.6 7.8 0.00 0.00 0.00 74 1017.7
20260506171210 63 0 1.7 7.0 0.00 0.00 0.00 75 1017.8
20260506170710 63 0 2.6 7.0 0.00 0.00 0.00 75 1017.8
20260506170209 62 0 3.5 7.8 0.00 0.00 0.00 75 1017.7
20260506165710 62 0 4.3 8.7 0.00 0.00 0.00 74 1017.6
20260506165210 62 0 4.3 8.7 0.00 0.00 0.00 73 1017.7
20260506164713 63 0 2.6 5.2 0.00 0.00 0.00 72 1017.6
20260506164708 62 0 3.5 7.8 0.00 0.00 0.00 72 1017.6
20260506164325 63 0 3.5 7.0 0.00 0.00 0.00 72 1017.5
20260506163207 63 0 2.6 7.0 0.00 0.00 0.00 71 1017.5
20260506162703 63 0 2.6 7.0 0.00 0.00 0.00 70 1017.5
20260506162203 62 0 2.6 7.0 0.00 0.00 0.00 72 1017.5
20260506161705 62 0 2.6 7.0 0.00 0.00 0.00 72 1017.5
20260506161202 62 0 2.6 4.3 0.00 0.00 0.00 73 1017.5
20260506160701 62 0 2.6 4.3 0.00 0.00 0.00 73 1017.5
20260506160202 62 0 2.6 4.3 0.00 0.00 0.00 73 1017.5
20260506155659 62 0 2.6 5.2 0.00 0.00 0.00 74 1017.5
20260506155202 62 0 2.6 5.2 0.00 0.00 0.00 74 1017.5
20260506154659 62 0 2.6 4.3 0.00 0.00 0.00 74 1017.5
20260506154207 63 0 1.7 4.3 0.00 0.00 0.00 73 1017.4
20260506154202 62 0 1.7 4.3 0.00 0.00 0.00 74 1017.4
20260506153204 63 0 0.9 3.5 0.00 0.00 0.00 71 1017.4
20260506153159 63 0 1.7 3.5 0.00 0.00 0.00 73 1017.4
20260506152157 64 0 0.9 2.6 0.00 0.00 0.00 71 1017.4
20260506151659 64 0 0.0 1.7 0.00 0.00 0.00 71 1017.4
20260506151157 64 0 0.9 1.7 0.00 0.00 0.00 72 1017.3
20260506150655 63 0 0.0 1.7 0.00 0.00 0.00 72 1017.4
20260506150156 62 0 0.0 1.7 0.00 0.00 0.00 74 1017.5
20260506145655 62 0 0.0 1.7 0.00 0.00 0.00 75 1017.4
20260506145157 61 0 0.0 1.7 0.00 0.00 0.00 76 1017.4
20260506144655 60 0 0.0 1.7 0.00 0.00 0.00 77 1017.3
20260506144155 59 0 0.0 1.7 0.00 0.00 0.00 78 1017.3
20260506143656 58 0 0.0 1.7 0.00 0.00 0.00 80 1017.3
20260506143155 57 0 0.0 1.7 0.00 0.00 0.00 81 1017.3
20260506142655 56 0 0.0 1.7 0.00 0.00 0.00 82 1017.3
20260506142156 55 0 0.9 1.7 0.00 0.00 0.00 84 1017.2
20260506141653 54 0 0.9 1.7 0.00 0.00 0.00 85 1017.2
20260506141154 53 0 0.0 1.7 0.00 0.00 0.00 87 1017.2
20260506140655 52 0 0.0 0.9 0.00 0.00 0.00 88 1017.2
20260506140154 52 0 0.0 0.9 0.00 0.00 0.00 89 1017.1
20260506135655 51 0 0.0 0.9 0.00 0.00 0.00 90 1017.1
20260506135153 50 0 0.0 1.7 0.00 0.00 0.00 90 1017.0
20260506134653 50 0 0.0 1.7 0.00 0.00 0.00 90 1017.0
20260506134153 49 0 0.9 1.7 0.00 0.00 0.00 90 1016.9
20260506133700 49 0 0.0 1.7 0.00 0.00 0.00 90 1016.7
20260506133655 49 0 0.9 1.7 0.00 0.00 0.00 90 1016.9
20260506132651 49 0 0.0 1.7 0.00 0.00 0.00 90 1016.6
20260506132152 49 0 0.0 1.7 0.00 0.00 0.00 90 1016.6
20260506131651 49 0 0.0 0.9 0.00 0.00 0.00 90 1016.6
20260506131151 49 0 0.0 1.7 0.00 0.00 0.00 89 1016.6
20260506130657 49 0 0.9 1.7 0.00 0.00 0.00 90 1016.5
20260506130653 49 0 0.9 1.7 0.00 0.00 0.00 90 1016.6
20260506125651 49 0 0.9 1.7 0.00 0.00 0.00 90 1016.5
20260506125156 49 0 0.9 1.7 0.00 0.00 0.00 89 1016.3
20260506125151 49 0 0.9 1.7 0.00 0.00 0.00 90 1016.3
20260506124152 49 0 0.9 1.7 0.00 0.00 0.00 89 1016.3
20260506123649 49 0 0.9 1.7 0.00 0.00 0.00 89 1016.3
20260506123150 49 0 0.9 1.7 0.00 0.00 0.00 90 1016.3
20260506122649 49 0 0.9 1.7 0.00 0.00 0.00 89 1016.4
20260506122150 49 0 0.9 1.7 0.00 0.00 0.00 89 1016.4
20260506121647 49 0 0.9 1.7 0.00 0.00 0.00 89 1016.4
20260506121147 49 0 0.0 1.7 0.00 0.00 0.00 89 1016.2
20260506120653 49 0 0.0 1.7 0.00 0.00 0.00 88 1016.5
20260506120647 49 0 0.0 1.7 0.00 0.00 0.00 88 1016.2
20260506120306 49 0 0.0 1.7 0.00 0.00 0.00 88 1016.4
20260506115805 50 0 0.9 1.7 0.00 0.00 0.00 88 1016.3
20260506115307 50 0 0.9 1.7 0.00 0.00 0.00 88 1016.3
20260506114143 50 0 0.9 1.7 0.00 0.00 0.00 88 1016.3
20260506113642 50 0 0.0 1.7 0.00 0.00 0.00 89 1016.4
20260506113141 50 0 0.0 1.7 0.00 0.00 0.00 88 1016.4
20260506112639 50 0 0.0 1.7 0.00 0.00 0.00 88 1016.4
20260506112140 50 0 0.9 1.7 0.00 0.00 0.00 88 1016.4
20260506111638 50 0 0.9 1.7 0.00 0.00 0.00 88 1016.3
20260506111139 50 0 0.0 1.7 0.00 0.00 0.00 88 1016.2
20260506110640 50 0 0.0 1.7 0.00 0.00 0.00 88 1016.1
20260506110143 51 0 0.0 1.7 0.00 0.00 0.00 87 1016.2
20260506110138 50 0 0.9 1.7 0.00 0.00 0.00 87 1016.1
20260506105134 51 0 0.0 0.9 0.00 0.00 0.00 87 1016.2
20260506104634 51 0 0.0 1.7 0.00 0.00 0.00 87 1016.1
20260506104135 51 0 0.0 1.7 0.00 0.00 0.00 87 1016.1
20260506103635 51 0 0.9 1.7 0.00 0.00 0.00 87 1016.0
20260506103135 51 0 0.9 1.7 0.00 0.00 0.00 87 1016.1
20260506102636 51 0 0.0 1.7 0.00 0.00 0.00 87 1016.0
20260506102135 51 0 0.9 2.6 0.00 0.00 0.00 87 1015.9
20260506101637 51 0 0.9 2.6 0.00 0.00 0.00 86 1015.9
20260506101134 51 0 0.9 2.6 0.00 0.00 0.00 86 1015.9
20260506100640 52 0 0.9 2.6 0.00 0.00 0.00 86 1015.9
20260506100636 52 0 0.9 2.6 0.00 0.00 0.00 86 1015.9
20260506095635 52 0 0.9 1.7 0.00 0.00 0.00 86 1015.9
20260506095135 52 0 0.0 0.9 0.00 0.00 0.00 85 1015.9
20260506094635 52 0 0.9 1.7 0.00 0.00 0.00 85 1016.0
20260506094136 52 0 0.0 1.7 0.00 0.00 0.00 85 1016.0
20260506093636 53 0 0.9 1.7 0.00 0.00 0.00 85 1016.0
20260506093140 53 0 0.9 1.7 0.00 0.00 0.00 85 1015.9
20260506093136 53 0 0.9 1.7 0.00 0.00 0.00 85 1015.9
20260506092140 53 0 0.9 2.6 0.00 0.00 0.00 84 1015.8
20260506092135 53 0 0.9 1.7 0.00 0.00 0.00 84 1015.8
20260506091755 53 0 0.9 2.6 0.00 0.00 0.00 84 1015.9
20260506090636 53 0 0.9 1.7 0.00 0.00 0.00 84 1015.9
20260506090136 54 0 0.9 2.6 0.00 0.00 0.00 84 1015.8
20260506085637 54 0 0.9 2.6 0.00 0.00 0.00 84 1016.0
20260506085136 54 0 0.9 2.6 0.00 0.00 0.00 84 1016.0
20260506084636 53 0 0.9 1.7 0.00 0.00 0.00 83 1016.1
20260506084135 54 0 1.7 2.6 0.00 0.00 0.00 82 1016.2
20260506083640 54 0 0.9 2.6 0.00 0.00 0.00 82 1016.1
20260506083635 54 0 0.9 2.6 0.00 0.00 0.00 82 1016.2
20260506082634 54 0 0.9 2.6 0.00 0.00 0.00 82 1016.1
20260506082134 54 0 0.9 2.6 0.00 0.00 0.00 82 1016.1
20260506081640 54 0 0.0 4.3 0.00 0.00 0.00 81 1016.1
20260506081634 54 0 0.9 4.3 0.00 0.00 0.00 81 1016.1
20260506080637 55 0 0.0 1.7 0.00 0.00 0.00 81 1016.1
20260506080136 55 0 0.9 2.6 0.00 0.00 0.00 80 1016.1